Location: Beverley
(50.2667°N, 107.9667°W)
Time: 13:27:57
(UTC+00:00)

XW-2A - Pass Details

Date: 29 June 2022
Orbit: 395 x 405 km, 97.2° (Epoch: 15 August)

Event Time Altitude Azimuth Distance (km) Brightness Sun altitude
Exits shadow 04:08:05 - 172° (S) 1,986 ? -5.7°
Reaches altitude 10° 04:09:21 10° 174° (S) 1,442 ? -5.8°
Maximum altitude 04:12:25 67° 258° (WSW) 437 ? -6.1°
Drops below altitude 10° 04:15:30 10° 342° (NNW) 1,453 ? -6.4°
Sets 04:17:29 0° 345° (NNW) 2,316 ? -6.7°
